Location: Haulchin
(50.3172°N, 3.4360°E)
Time: 05:38:36
(UTC+00:00)

GP-B - Pass Details

Date: 23 May 2024
Orbit: 624 x 629 km, 89.8° (Epoch: 19 June)

Event Time Altitude Azimuth Distance (km) Brightness Sun altitude
Rises 00:27:15 0° 356° (N) 2,926 8.0 -18.4°
Reaches altitude 10° 00:29:32 10° 350° (N) 2,013 6.7 -18.3°
Maximum altitude 00:33:45 46° 278° (W) 847 3.7 -18.2°
Enters shadow 00:35:18 32° 228° (SW) 1,078 3.8 -18.1°
